Change the Weather History Date:

Thursday, October 3, 2013

  Actual Average Record
Temperature  
Mean Temperature 69 °F -  
Max Temperature 78 °F 72 °F - ()
Min Temperature 60 °F 59 °F - ()
Cooling Degree Days 4    
Growing Degree Days 19 (Base 50)    
Moisture  
Dew Point 60 °F    
Average Humidity 81    
Maximum Humidity 100    
Minimum Humidity 50    
Precipitation  
Precipitation 0.31 in - - ()
Sea Level Pressure  
Sea Level Pressure 30.17 in    
Wind  
Wind Speed 9 mph ()    
Max Wind Speed 122 mph    
Max Gust Speed -    
Visibility 4.3 miles    
Events Rain , Thunderstorm    
T = Trace of Precipitation, MM = Missing Value Source: Averaged Metar Reports

Daily Weather History Graph

Daily Weather History Graph

Search for Another Location

Airport or City:

Trip Planner

Search our weather history database for the weather conditions in past years. The results will help you decide how hot, cold, wet, or windy it might be!

Date:

Astronomy

Oct. 03, 2013 Rise Set
Actual Time 5:51 AM CST 5:49 PM CST
Civil Twilight 5:30 AM CST 6:11 PM CST
Nautical Twilight 5:05 AM CST 6:36 PM CST
Astronomical Twilight 4:40 AM CST 7:00 PM CST
Moon 4:34 AM CST (10/3) 4:54 PM CST (10/3)
Length of Visible Light 12h 40m
Length of Day
11h 57m
Waning Crescent, 2% of the Moon is Illuminated
Oct 3
Waning Crescent
Oct 4
New
Oct 11
First Quarter
Oct 18
Full
Oct 26
Last Quarter

Hourly Weather History & Observations

Time (CST) Temp. Dew Point Humidity Pressure Visibility Wind Dir Wind Speed Gust Speed Precip Events Conditions
12:00 AM 64.4 °F 59.0 °F 83% 30.24 in 6.2 mi North 9.2 mph - N/A   Partly Cloudy
1:00 AM 64.4 °F 59.0 °F 83% 30.24 in 6.2 mi North 9.2 mph - N/A   Partly Cloudy
2:00 AM 64.4 °F 59.0 °F 83% 30.21 in - North 4.6 mph - N/A   Clear
3:00 AM 62.6 °F 59.0 °F 88% 30.18 in - North 6.9 mph - N/A   Clear
4:00 AM 62.6 °F 59.0 °F 88% 30.18 in - North 4.6 mph - N/A   Clear
5:00 AM 60.8 °F 59.0 °F 94% 30.21 in 6.2 mi North 4.6 mph - N/A   Partly Cloudy
6:00 AM 62 °F 58 °F 81% 29.90 in 25 mi North 6.9 mph - -   Scattered Clouds
6:00 AM 62.6 °F 57.2 °F 82% 30.21 in 6.2 mi North 6.9 mph - N/A   Mostly Cloudy
7:00 AM 64.4 °F 59.0 °F 83% 30.24 in 6.2 mi North 4.6 mph - N/A   Mostly Cloudy
8:00 AM 66.2 °F 59.0 °F 78% 30.27 in - North 5.8 mph - N/A   Clear
9:00 AM 68.0 °F 59.0 °F 73% 30.27 in - NNE 9.2 mph - N/A   Clear
10:00 AM 69.8 °F 60.8 °F 73% 30.24 in 6.2 mi North 11.5 mph - N/A   Mostly Cloudy
11:00 AM 73.4 °F 55.4 °F 53% 30.24 in 6.2 mi North 11.5 mph - N/A   Scattered Clouds
12:00 PM 74 °F 59 °F 50% 29.86 in 25 mi NNE 11.5 mph - -   Overcast
12:00 PM 75.2 °F 59.0 °F 57% 30.21 in 6.2 mi NNE 11.5 mph - N/A   Mostly Cloudy
1:00 PM 75.2 °F 60.8 °F 61% 30.18 in 6.2 mi NNE 13.8 mph - N/A   Scattered Clouds
2:00 PM 73.4 °F 60.8 °F 65% 30.15 in 4.3 mi NNE 11.5 mph - N/A   Partly Cloudy
2:15 PM - - N/A% - 6.2 mi NNE 11.5 mph - N/A   Light Drizzle
2:40 PM - - N/A% - 5.0 mi North 122.0 mph - N/A   Scattered Clouds
3:00 PM 73.4 °F 59.0 °F 61% 30.15 in 5.0 mi North 6.9 mph - N/A   Scattered Clouds
3:05 PM - 59.0 °F N/A% 30.15 in 5.0 mi North 6.9 mph - N/A   Scattered Clouds
3:30 PM - - N/A% - 5.0 mi West 4.6 mph - N/A   Mostly Cloudy
4:00 PM 71.6 °F 64.4 °F 78% 30.12 in 5.0 mi South 4.6 mph - N/A   Light Drizzle
4:04 PM - - N/A% - 4.3 mi South 9.2 mph - N/A Rain , Thunderstorm Light Thunderstorms and Rain
4:35 PM - - N/A% - 1.2 mi South 9.2 mph - N/A Rain , Thunderstorm Thunderstorms and Rain
5:00 PM 64.4 °F 64.4 °F 100% 30.18 in 1.2 mi South 6.9 mph - N/A Rain Mostly Cloudy
6:00 PM 64 °F 63 °F 94% 29.91 in 2 mi South 6.9 mph - - Rain Light Rain
6:00 PM 64.4 °F 62.6 °F 94% 30.18 in 2.5 mi South 6.9 mph - N/A Rain Light Rain
6:15 PM - - N/A% - 0.6 mi SSW 6.9 mph - N/A   Light Drizzle
7:00 PM 64.4 °F 64.4 °F 100% 30.21 in 1.2 mi SSW 6.9 mph - N/A   Overcast
7:20 PM - - N/A% - 1.2 mi SSW 6.9 mph - N/A Rain Rain
8:00 PM 62.6 °F 62.6 °F 100% 30.24 in 2.5 mi SSW 4.6 mph - N/A   Overcast
8:15 PM - - N/A% - 2.5 mi Calm Calm - N/A Rain , Thunderstorm Light Thunderstorms and Rain
9:00 PM 62.6 °F 62.6 °F 100% 30.27 in 3.7 mi Calm Calm - N/A Rain , Thunderstorm Light Thunderstorms and Rain
9:30 PM - - N/A% - 4.3 mi North 6.9 mph - N/A Rain Rain
11:00 PM 62.6 °F 60.8 °F 94% 30.27 in 6.2 mi NNE 4.6 mph - N/A   Overcast